User: anonymous   Login
Location: West Cummington
(42.4920°N, 72.9680°W)
Time: 08:44:16
(UTC-05:00)
Language:

Cosmos 841 Rocket - Orbit

View from above orbital plane
View from above orbital plane
View from above satellite
View from above satellite

Ground track
Ground track

The orbit data is extracted from the following two-line orbital elements,

1 09023U 76069B   16345.78222603  .00000034  00000-0  19442-4 0  9992
2 09023  74.0444  84.4733 0018795 295.1832  64.7373 14.39524975117714
Epoch (UTC): 10 December 2016 18:46:24
Eccentricity: 0.0018795
inclination: 74.0444°
perigee height: 746 km
apogee height: 773 km
right ascension of ascending node: 84.4733°
argument of perigee: 295.1832°
revolutions per day: 14.39524975
mean anomaly at epoch: 64.7373°
orbit number at epoch: 11771

The dashed part of the orbit path shows where the satellite is in the earth's shadow,  

DLR